Location: Firdgum
(53.2488°N, 5.5615°E)
Time: 03:28:18
(UTC+00:00)

Cosmos 1933 Rocket - Pass Details

Date: 08 December 2019
Orbit: 608 x 629 km, 82.5° (Epoch: 19 January)

Event Time Altitude Azimuth Distance (km) Brightness Sun altitude
Rises 04:43:23 0° 186° (S) 2,857 7.0 -24.8°
Reaches altitude 10° 04:45:35 10° 185° (S) 1,958 6.1 -24.4°
Maximum altitude 04:49:55 81° 99° (E) 624 3.5 -23.8°
Drops below altitude 10° 04:54:18 10° 13° (NNE) 1,979 6.2 -23.2°
Sets 04:56:32 0° 12° (NNE) 2,890 7.1 -22.8°
